DW1818 Weather Reports


Display with metric or nautical units.
time (UTC)temp
F
wind
direction
speed
MPH
gust
MPH
rain 1hr
in
rain 24hr
in
rain mn
in
humidity
%
barometer
mb
20260503234540 58 232 7.0 0.0 0.00 0.00 0.00 100 1012.2
20260503233036 59 231 7.0 0.0 0.00 0.00 0.00 100 1012.3
20260503231531 59 250 8.0 0.0 0.00 0.00 0.00 100 1012.2
20260503230027 59 225 10.0 0.0 0.00 0.00 0.00 100 1012.2
20260503224526 59 255 11.0 0.0 0.00 0.00 0.00 100 1012.1
20260503223018 59 243 13.0 0.0 0.00 0.00 0.00 100 1012.1
20260503221513 60 225 10.0 0.0 0.00 0.00 0.00 100 1012.3
20260503220009 60 244 14.0 0.0 0.00 0.00 0.00 100 1012.4
20260503214518 60 165 11.0 0.0 0.00 0.00 0.00 100 1012.2
20260503213100 59 254 14.0 0.0 0.00 0.00 0.00 100 1012.1
20260503211556 60 248 12.0 0.0 0.00 0.00 0.00 100 1012.0
20260503210056 60 269 14.0 0.0 0.00 0.00 0.00 100 1012.1
20260503204601 59 244 11.0 0.0 0.00 0.00 0.00 100 1012.1
20260503203042 58 259 14.0 0.0 0.00 0.00 0.00 100 1012.1
20260503201539 59 235 14.0 0.0 0.00 0.00 0.00 100 1012.2
20260503200043 58 240 16.0 0.0 0.00 0.00 0.00 100 1012.3
20260503194530 58 254 13.0 0.0 0.00 0.00 0.00 100 1012.6
20260503193026 58 298 11.0 0.0 0.00 0.00 0.00 100 1012.7
20260503191521 58 240 15.0 0.0 0.00 0.00 0.00 100 1013.1
20260503190017 57 263 14.0 0.0 0.00 0.00 0.00 100 1013.2
20260503184517 57 278 14.0 0.0 0.00 0.00 0.00 100 1013.5
20260503183008 58 267 12.0 0.0 0.00 0.00 0.00 100 1013.4
20260503181505 57 315 11.0 0.0 0.00 0.00 0.00 100 1013.4
20260503180108 56 223 11.0 0.0 0.00 0.00 0.00 100 1013.4
20260503174555 56 267 7.0 0.0 0.00 0.00 0.00 100 1013.5
20260503173142 55 211 12.0 0.0 0.00 0.00 0.00 100 1013.6
20260503171548 55 259 10.0 0.0 0.00 0.00 0.00 100 1013.9
20260503081514 40 286 9.0 0.0 0.00 0.00 0.00 100 1014.3
20260503071554 41 284 11.0 0.0 0.00 0.00 0.00 100 1013.4
20260503054535 44 284 9.0 0.0 0.00 0.00 0.00 100 1013.5
20260503053022 44 301 8.0 0.0 0.00 0.00 0.00 100 1013.5
20260503051518 44 315 9.0 0.0 0.00 0.00 0.00 100 1013.6
20260503050013 44 307 11.0 0.0 0.00 0.00 0.00 100 1013.6
20260503044517 44 273 13.0 0.0 0.00 0.00 0.00 100 1013.7
20260503043011 44 298 12.0 0.0 0.00 0.00 0.00 100 1013.7
20260503041601 44 293 12.0 0.0 0.00 0.00 0.00 100 1013.8
20260503040056 44 279 9.0 0.0 0.00 0.00 0.00 100 1013.9
20260503034552 44 282 10.0 0.0 0.00 0.00 0.01 100 1013.9
20260503033047 45 289 10.0 0.0 0.00 0.00 0.01 100 1014.0
20260503031550 44 288 7.0 0.0 0.00 0.00 0.01 100 1014.1
20260503030039 44 265 7.0 0.0 0.00 0.00 0.01 100 1014.3
20260503024534 44 261 5.0 0.0 0.00 0.00 0.01 100 1014.4
20260503023033 45 288 5.0 0.0 0.00 0.00 0.01 100 1014.4
20260503021525 45 265 5.0 0.0 0.00 0.00 0.01 100 1014.6
20260503020021 45 275 5.0 0.0 0.00 0.00 0.01 100 1014.4
20260503014517 45 278 6.0 0.0 0.00 0.00 0.01 100 1014.4
20260503013023 45 281 10.0 0.0 0.00 0.00 0.01 100 1014.2
20260503011508 46 258 10.0 0.0 0.00 0.00 0.01 100 1014.1
20260503010005 46 282 8.0 0.0 0.00 0.00 0.01 100 1014.2
20260503004600 46 288 9.0 0.0 0.00 0.00 0.01 100 1013.9
20260503003056 46 304 7.0 0.0 0.00 0.00 0.01 100 1013.7
20260503001553 47 282 7.0 0.0 0.00 0.00 0.01 100 1013.6
20260503000100 47 284 6.0 0.0 0.00 0.00 0.01 100 1013.7